MST,Max TemperatureF,Mean TemperatureF,Min TemperatureF,Max Dew PointF,MeanDew PointF,Min DewpointF,Max Humidity, Mean Humidity, Min Humidity, Max Sea Level PressureIn, Mean Sea Level PressureIn, Min Sea Level PressureIn, Max VisibilityMiles, Mean VisibilityMiles, Min VisibilityMiles, Max Wind SpeedMPH, Mean Wind SpeedMPH, Max Gust SpeedMPH,PrecipitationIn, CloudCover, Events, WindDirDegrees
2012-11-1,68,44,21,14,7,-4,55,34,6,30.22,30.09,29.99,10,10,10,15,2,25,0.00,0,,225
2012-11-2,63,43,25,22,12,1,48,31,18,30.12,30.04,29.98,10,10,10,14,1,,0.00,0,,242
2012-11-3,64,42,21,19,14,8,66,36,16,30.22,30.13,30.06,10,10,10,10,1,22,0.00,0,,315
2012-11-4,66,42,19,10,5,1,52,27,8,30.33,30.24,30.16,10,10,10,14,2,18,0.00,0,,4
2012-11-5,69,47,25,21,15,4,46,31,15,30.32,30.22,30.12,10,10,10,10,3,18,0.00,0,,306
2012-11-6,70,46,23,20,16,11,69,37,12,30.30,30.20,30.11,10,10,10,10,3,,0.00,0,,205
2012-11-7,69,45,21,18,12,7,63,33,10,30.27,30.12,30.00,10,10,10,12,2,20,0.00,0,,217
2012-11-8,63,45,27,39,16,8,82,35,11,30.06,29.93,29.82,10,10,10,21,5,29,0.02,2,Rain,219
2012-11-9,52,46,39,44,36,29,93,72,44,30.01,29.76,29.61,10,9,3,25,9,43,0.10,4,Rain,194
2012-11-10,42,32,21,36,24,14,93,84,48,29.92,29.79,29.55,10,5,0,24,12,47,0.35,7,Fog-Rain-Snow,236
2012-11-11,33,22,12,16,11,6,88,63,32,30.43,30.20,29.91,10,10,10,14,7,24,0.00,1,,281
2012-11-12,41,25,9,14,8,4,84,56,24,30.54,30.43,30.34,10,10,10,8,2,,0.00,0,,63
2012-11-13,51,32,12,16,11,7,88,56,18,30.43,30.34,30.24,10,10,10,10,1,,0.00,0,,124
2012-11-14,57,34,12,19,14,8,88,57,14,30.43,30.29,30.17,10,10,10,7,1,,0.00,0,,175
2012-11-15,55,36,17,23,16,8,85,54,15,30.35,30.26,30.19,10,10,10,8,1,,0.00,0,,97
2012-11-16,60,44,28,24,20,15,78,47,20,30.24,30.15,30.06,10,10,10,14,2,23,0.00,3,,205
2012-11-17,57,42,26,34,25,20,82,58,26,30.23,30.12,30.00,10,10,10,16,3,28,0.00,2,,215
2012-11-18,54,40,25,33,27,20,92,63,34,30.19,30.10,30.00,10,10,10,13,5,16,0.00,2,,220
2012-11-19,57,37,17,30,18,9,92,59,15,30.40,30.30,30.20,10,10,10,9,1,,0.00,0,,224
2012-11-20,60,38,17,19,10,-7,81,47,6,30.43,30.28,30.17,10,10,10,9,1,,0.00,0,,150
2012-11-21,61,40,18,18,13,10,71,45,17,30.30,30.17,30.05,10,10,10,12,2,16,0.00,0,,217
2012-11-22,61,40,19,25,16,11,81,40,14,30.36,30.25,30.13,10,10,10,12,2,,0.00,0,,293
2012-11-23,60,38,16,18,13,9,81,50,13,30.52,30.39,30.32,10,10,10,9,1,,0.00,0,,95
2012-11-24,61,38,14,16,11,8,77,47,13,30.44,30.27,30.11,10,10,10,9,1,,0.00,0,,273
2012-11-25,60,37,14,19,11,7,77,45,13,30.20,30.06,29.93,10,10,10,15,2,21,0.00,0,,257
2012-11-26,59,37,15,16,12,9,77,46,16,30.29,30.15,29.99,10,10,10,7,1,,0.00,0,,66
2012-11-27,59,36,12,15,10,6,77,52,15,30.45,30.33,30.23,10,10,10,6,0,,0.00,0,,-1
2012-11-28,60,38,15,21,14,6,68,47,20,30.42,30.27,30.16,10,10,10,13,1,,0.00,0,,214
2012-11-29,57,38,18,28,21,14,85,60,29,30.30,30.20,30.12,10,10,10,12,2,21,0.00,0,,284
2012-11-30,57,36,16,29,19,13,88,57,20,30.31,30.17,30.07,10,10,10,16,2,16,0.00,0,,215